Location: ???????
(55.4362°N, 38.1183°E)
Time: 18:27:21
(UTC+00:00)

Cosmos 2278 Rocket - Pass Details

Date: 27 October 2021
Orbit: 841 x 845 km, 71.0° (Epoch: 28 November)

Event Time Altitude Azimuth Distance (km) Brightness Sun altitude
Rises 18:46:04 0° 318° (NW) 3,417 6.3 -39.1°
Reaches altitude 10° 18:49:24 10° 299° (WNW) 2,476 5.3 -39.5°
Enters shadow 18:52:15 16° 269° (W) 2,061 4.5 -39.8°
